Wind_Speed
31 32 32 31 31 31 32 32 31 31 31 31 31 29 28 28 28 29 28 28 28 28 28 28 28 28 27 27 26 26 26 26 26 26 27 27 27 27 27 27 27 27 27
34 34 34 34 33 33 33 33 33 33 33 33 34 32 31 30 30 30 30 30 30 30 30 30 30 30 29 29 28 28 28 28 28 28 29 29 29 29 29 29 29 29 29
36 35 35 35 35 35 35 35 35 35 35 35 35 34 34 33 32 32 32 32 32 32 32 32 32 32 31 31 31 30 30 30 30 30 30 31 30 30 31 31 31 31 31
38 37 37 36 36 36 36 37 37 37 37 37 37 36 36 35 35 35 34 34 34 34 34 34 34 34 34 34 33 33 33 33 32 32 32 33 33 32 32 32 33 33 33
39 39 38 38 38 38 38 38 39 39 39 39 39 39 39 38 38 37 36 36 36 36 36 36 36 36 36 36 36 36 35 35 35 35 35 35 35 35 35 34 35 35 36
40 40 40 39 39 39 40 40 40 40 41 41 40 40 41 40 39 39 39 39 38 38 38 38 38 38 37 37 37 37 37 37 37 37 38 38 38 38 38 37 36 37 38
41 41 41 41 40 40 41 41 41 41 42 42 42 42 42 42 42 41 41 40 40 40 40 39 39 39 39 39 39 39 39 39 39 39 39 39 40 40 40 40 39 39 39
42 42 42 42 42 41 42 42 42 43 43 43 44 44 44 43 43 43 43 42 42 41 42 42 41 41 41 41 41 41 41 41 41 41 41 41 42 41 41 41 41 42 41
42 42 43 42 42 42 42 43 43 43 44 44 45 45 45 45 45 45 45 45 45 44 43 43 43 43 43 43 43 44 44 44 44 44 44 44 44 44 43 43 43 43 44
43 43 43 44 44 43 43 43 44 45 45 45 45 46 46 47 47 47 47 47 46 46 45 45 45 46 46 46 46 46 46 46 46 46 46 46 46 45 45 45 46 46 46
43 43 44 44 44 44 44 44 45 45 45 46 46 46 47 48 48 48 48 47 48 48 48 47 48 48 48 48 49 48 48 47 48 48 48 47 48 48 47 47 47 47 48
44 44 44 44 45 45 45 45 45 46 46 46 47 47 47 48 49 49 49 49 49 49 49 49 50 50 50 50 50 51 50 50 49 50 50 50 50 51 51 50 49 49 49
44 44 44 45 45 45 45 46 46 46 46 46 46 47 48 49 50 51 51 51 50 50 50 51 51 51 51 51 51 51 52 52 52 52 52 52 52 53 52 52 51 51 52
44 45 45 45 45 45 45 46 46 46 46 47 47 47 47 48 50 51 52 52 52 51 52 52 52 53 53 53 52 52 53 53 53 54 54 54 54 53 53 53 53 53 53
45 46 46 46 46 46 46 46 46 46 46 47 47 47 48 49 50 50 51 53 53 53 53 53 53 54 54 54 53 54 54 55 55 55 55 55 54 54 54 54 54 54 54
45 46 47 46 46 46 47 47 46 46 46 46 47 47 47 48 49 50 51 52 53 54 53 53 54 54 55 55 56 56 56 56 56 56 55 56 55 55 55 55 55 55 55
45 46 47 47 47 47 47 47 46 46 46 46 48 48 48 47 48 50 51 52 53 53 53 54 54 54 54 55 56 57 58 58 57 57 56 56 55 56 56 56 56 56 56
44 45 46 47 47 47 47 47 47 47 47 48 48 50 50 49 49 50 51 53 54 54 55 55 55 55 55 56 56 57 58 58 58 57 57 57 56 56 56 56 56 56 56
44 45 46 46 47 47 48 47 48 48 48 49 49 50 50 50 50 51 52 53 54 55 56 56 56 56 56 56 57 57 58 58 57 57 57 57 56 56 56 55 56 56 56
44 43 44 45 46 47 48 48 48 48 49 49 50 50 51 51 52 52 52 53 54 54 55 56 56 56 56 57 57 57 56 57 57 57 57 57 56 56 56 56 56 56 56
43 43 44 45 46 47 47 47 48 48 48 49 50 51 52 52 52 52 52 52 53 54 54 55 55 56 56 56 56 56 56 56 56 56 56 56 56 56 56 56 55 55 56
43 44 44 45 46 46 46 46 47 47 48 48 49 50 51 52 53 53 53 53 53 53 53 54 54 54 54 55 55 55 56 56 56 56 57 57 57 57 56 56 56 56 57
43 43 43 44 45 45 45 45 46 46 47 48 49 50 51 52 53 54 54 54 53 52 52 53 53 53 53 53 54 55 56 56 55 56 57 57 57 57 57 56 56 56 57
43 43 44 44 44 44 44 45 46 46 47 48 49 50 51 52 53 53 53 53 52 51 51 51 52 51 51 51 52 53 53 54 54 54 56 55 55 55 55 55 55 55 56
44 44 44 44 44 44 44 44 45 46 47 48 50 50 51 51 50 50 50 50 50 49 49 50 49 49 49 49 49 50 50 51 52 52 54 54 54 55 54 54 54 55 54
42 42 42 42 43 43 43 43 45 46 47 48 48 49 49 48 48 48 48 47 47 46 46 47 47 47 47 47 47 48 49 49 49 50 51 52 52 53 52 52 53 54 54
Wind_Direction
263 261 261 260 260 259 257 256 257 257 257 257 256 257 257 258 260 259 258 257 257 257 258 259 260 261 262 263 263 263 263 264 264 264 264 264 264 264 264 264 264 265 266
264 263 262 261 260 260 258 256 256 256 256 257 257 258 257 258 259 260 260 259 259 260 259 259 260 260 262 263 263 264 264 265 265 265 264 263 264 264 264 265 266 267 266
265 263 263 262 261 260 258 257 256 256 256 257 258 258 258 258 259 260 261 261 261 261 261 260 260 260 262 263 263 264 265 266 266 266 265 265 265 267 267 267 267 267 267
265 264 263 262 261 260 259 257 256 257 257 258 258 257 257 258 259 260 260 261 262 262 262 262 261 261 262 262 263 264 266 266 266 266 266 266 266 267 268 267 267 266 267
266 264 262 261 260 260 259 258 257 257 257 258 258 258 258 258 259 259 260 261 262 263 263 262 262 262 262 262 263 264 265 266 266 267 267 267 268 267 267 269 268 268 267
265 263 261 261 260 259 259 259 258 258 258 258 258 258 259 259 259 260 260 261 262 262 263 263 262 262 262 262 263 264 265 266 266 267 268 269 269 269 267 269 269 269 268
264 263 262 261 260 259 259 259 259 258 258 258 258 258 259 259 260 260 260 261 262 262 262 263 263 263 262 263 264 265 266 266 267 267 268 269 269 270 269 269 268 268 268
264 262 263 262 261 260 260 259 259 258 258 258 258 258 258 259 260 260 261 261 262 262 263 262 263 263 263 264 265 266 266 267 267 268 268 269 269 269 269 269 269 269 269
264 262 262 262 262 262 262 260 259 258 258 258 259 259 259 259 260 260 261 262 262 262 263 263 263 264 264 265 266 267 267 267 268 268 268 268 269 269 270 270 271 270 269
263 263 262 263 263 263 263 261 260 259 259 259 259 259 259 260 260 260 261 262 262 263 263 264 265 265 265 266 267 267 268 268 268 268 268 268 268 268 269 270 270 270 270
263 262 263 263 263 264 264 262 261 260 260 260 260 259 259 260 261 261 261 262 263 264 264 265 266 266 267 267 267 267 267 268 268 268 268 267 268 268 269 270 269 269 269
263 263 263 263 263 264 264 263 262 262 261 260 260 260 260 261 261 262 263 263 264 264 265 265 266 266 267 267 267 267 268 268 269 269 268 268 269 269 269 269 269 269 268
264 264 264 263 263 264 264 264 264 263 262 261 261 260 260 261 262 263 264 264 265 265 266 266 267 267 268 268 268 268 268 269 269 269 269 269 269 270 269 269 269 269 268
264 264 264 263 263 263 264 264 265 264 263 262 262 261 262 262 263 264 265 266 266 266 266 267 268 269 270 269 269 269 269 269 270 270 269 269 269 269 269 269 269 268 267
264 264 264 264 263 263 263 264 264 265 264 264 264 263 263 263 264 265 266 267 267 266 267 268 269 269 270 269 269 270 270 270 271 270 270 269 269 268 269 269 269 267 267
264 263 263 263 264 264 264 264 265 265 265 265 264 264 264 265 266 267 267 267 268 268 268 268 269 270 270 270 271 271 271 271 271 271 271 270 269 269 269 269 268 268 268
265 264 263 263 264 264 264 265 265 266 265 265 266 265 265 266 268 268 268 268 269 269 269 270 271 270 270 270 270 271 272 272 271 271 271 270 269 269 269 269 268 268 267
265 264 264 264 264 264 264 265 266 266 266 266 266 267 266 267 269 270 270 269 269 270 270 271 271 271 271 270 271 271 271 271 271 270 270 269 269 269 269 269 268 268 268
266 265 265 264 264 264 265 266 266 266 266 266 267 268 268 268 270 271 271 270 270 271 272 272 271 271 271 271 271 270 270 270 270 270 269 270 269 268 268 268 269 269 269
266 265 265 265 264 264 265 266 266 266 267 267 267 268 269 269 270 272 272 271 271 271 272 272 272 272 271 271 270 270 269 269 270 270 269 269 268 267 268 269 270 270 269
267 267 267 266 266 266 266 267 267 267 267 268 268 269 270 271 271 272 273 272 272 272 273 273 273 273 272 271 270 269 269 269 269 269 268 268 268 268 268 269 270 270 269
267 267 268 268 268 267 267 268 268 268 268 269 269 270 270 271 272 272 273 273 273 274 274 274 274 273 273 272 271 270 269 269 269 269 269 268 268 268 269 270 270 270 270
267 267 269 269 269 269 268 269 269 269 269 270 271 271 272 272 273 273 274 274 274 275 275 274 274 273 273 272 272 271 270 270 270 270 269 269 268 269 270 271 270 270 270
267 268 269 269 270 270 270 269 270 270 270 271 272 273 274 274 275 275 275 274 273 274 274 274 273 273 273 273 273 272 272 271 270 271 270 270 269 270 271 271 271 271 270
268 269 270 270 271 271 270 271 270 270 271 273 273 274 275 275 275 275 275 274 274 274 274 274 274 274 273 273 273 273 272 272 272 272 271 272 271 271 272 272 271 271 270
269 270 270 271 272 272 271 272 273 273 273 274 274 274 275 275 275 275 275 275 274 273 273 274 274 273 272 273 273 274 274 273 272 272 272 273 272 272 271 270 271 271 271
Height
5765 5766 5767 5768 5769 5771 5772 5774 5775 5777 5779 5780 5782 5784 5785 5786 5788 5789 5790 5791 5793 5794 5796 5797 5798 5799 5800 5801 5802 5803 5804 5804 5805 5806 5807 5807 5808 5809 5810 5811 5812 5813 5813
5757 5757 5759 5760 5761 5763 5764 5766 5768 5769 5771 5773 5774 5776 5778 5779 5781 5782 5783 5785 5786 5787 5789 5790 5791 5792 5794 5794 5795 5796 5797 5798 5799 5799 5800 5801 5801 5802 5803 5804 5805 5806 5807
5748 5749 5750 5751 5752 5754 5755 5757 5759 5761 5763 5764 5766 5768 5770 5772 5773 5775 5776 5778 5779 5780 5781 5783 5784 5785 5786 5787 5788 5789 5790 5791 5792 5792 5793 5794 5795 5795 5796 5797 5798 5799 5799
5739 5740 5741 5742 5743 5745 5746 5748 5750 5752 5754 5756 5757 5759 5761 5763 5765 5767 5768 5770 5771 5772 5774 5775 5776 5777 5778 5779 5780 5781 5782 5783 5784 5785 5785 5786 5787 5788 5788 5789 5790 5791 5792
5729 5730 5731 5732 5734 5735 5737 5738 5740 5742 5744 5746 5748 5750 5752 5754 5756 5758 5759 5761 5762 5764 5765 5766 5767 5769 5770 5771 5772 5773 5774 5775 5776 5776 5777 5778 5779 5779 5780 5780 5781 5782 5783
5719 5719 5721 5722 5724 5725 5727 5729 5730 5732 5734 5736 5738 5740 5742 5744 5746 5748 5750 5752 5753 5754 5756 5757 5758 5759 5761 5762 5763 5764 5765 5766 5766 5767 5768 5769 5769 5770 5771 5771 5772 5773 5773
5708 5709 5710 5712 5713 5715 5717 5718 5720 5722 5724 5725 5728 5730 5732 5734 5736 5738 5740 5742 5743 5745 5746 5747 5748 5750 5751 5752 5753 5754 5755 5756 5757 5757 5758 5759 5760 5760 5761 5762 5762 5763 5763
5697 5698 5700 5701 5703 5705 5706 5708 5709 5711 5713 5715 5717 5719 5721 5724 5726 5727 5729 5731 5733 5734 5735 5737 5738 5739 5741 5742 5743 5744 5744 5745 5746 5747 5748 5748 5749 5749 5750 5751 5751 5752 5752
5686 5687 5689 5691 5692 5694 5695 5696 5698 5700 5702 5704 5705 5708 5710 5712 5714 5717 5718 5720 5722 5723 5725 5726 5727 5728 5729 5730 5731 5732 5733 5734 5735 5736 5736 5737 5738 5738 5739 5739 5739 5739 5740
5675 5676 5678 5679 5681 5682 5684 5685 5687 5688 5690 5692 5694 5696 5698 5700 5702 5705 5707 5708 5710 5711 5713 5714 5715 5716 5717 5718 5719 5720 5721 5722 5723 5723 5724 5725 5726 5726 5727 5727 5727 5728 5728
5664 5665 5667 5668 5670 5671 5672 5673 5675 5676 5678 5679 5681 5683 5685 5687 5689 5692 5694 5696 5697 5699 5700 5702 5703 5704 5705 5706 5707 5708 5708 5709 5710 5711 5711 5712 5713 5713 5714 5714 5715 5715 5715
5653 5654 5655 5657 5658 5659 5660 5661 5663 5664 5666 5667 5668 5670 5672 5675 5677 5679 5681 5683 5685 5686 5687 5688 5689 5691 5692 5693 5694 5694 5695 5696 5696 5697 5698 5698 5699 5699 5700 5700 5701 5701 5701
5642 5643 5644 5645 5646 5647 5648 5649 5650 5652 5653 5654 5656 5657 5659 5661 5663 5665 5667 5669 5671 5673 5674 5675 5675 5677 5678 5679 5679 5680 5681 5681 5682 5683 5683 5684 5684 5685 5685 5686 5686 5686 5687
5630 5631 5632 5633 5634 5635 5636 5637 5638 5639 5640 5642 5643 5645 5646 5648 5650 5651 5653 5655 5657 5659 5660 5661 5661 5662 5663 5664 5665 5665 5666 5666 5667 5667 5668 5668 5669 5669 5670 5670 5670 5671 5671
5619 5619 5620 5621 5622 5623 5624 5625 5626 5627 5628 5629 5630 5632 5633 5635 5636 5637 5638 5640 5642 5644 5646 5647 5647 5648 5648 5649 5649 5650 5650 5651 5651 5652 5652 5652 5652 5653 5654 5654 5654 5655 5655
5606 5607 5608 5609 5610 5611 5612 5613 5614 5615 5616 5617 5618 5619 5620 5621 5622 5623 5624 5625 5626 5628 5630 5632 5632 5632 5632 5633 5633 5634 5634 5635 5635 5635 5635 5635 5636 5636 5637 5637 5638 5638 5639
5594 5595 5596 5597 5598 5599 5600 5601 5602 5603 5603 5604 5605 5606 5607 5608 5608 5609 5610 5610 5612 5613 5614 5616 5616 5617 5616 5617 5617 5617 5618 5618 5619 5618 5618 5618 5619 5619 5620 5620 5621 5621 5621
5582 5583 5584 5585 5586 5587 5588 5588 5589 5590 5591 5592 5592 5593 5593 5594 5594 5595 5595 5596 5596 5597 5598 5600 5600 5600 5600 5600 5600 5601 5601 5601 5602 5602 5602 5602 5602 5602 5603 5603 5604 5604 5604
5570 5571 5572 5572 5573 5574 5575 5576 5576 5577 5578 5578 5579 5579 5580 5580 5580 5580 5580 5581 5581 5581 5582 5583 5583 5584 5584 5583 5583 5584 5584 5584 5584 5584 5585 5585 5585 5586 5586 5587 5587 5587 5588
5558 5559 5559 5560 5560 5561 5562 5563 5563 5564 5564 5565 5565 5565 5566 5566 5566 5566 5565 5565 5565 5566 5566 5566 5567 5567 5567 5566 5566 5567 5567 5567 5567 5567 5568 5568 5569 5569 5569 5570 5570 5570 5570
5546 5547 5547 5547 5548 5548 5549 5549 5550 5550 5551 5551 5551 5551 5551 5551 5551 5551 5550 5550 5550 5550 5549 5549 5550 5550 5550 5549 5549 5549 5550 5551 5551 5550 5551 5552 5552 5553 5553 5553 5553 5553 5553
5534 5534 5534 5535 5535 5535 5535 5536 5536 5537 5537 5537 5537 5537 5537 5537 5536 5536 5535 5535 5534 5533 5533 5533 5533 5533 5533 5532 5532 5532 5533 5534 5536 5536 5534 5535 5535 5536 5536 5536 5536 5536 5536
5522 5522 5522 5522 5522 5522 5522 5522 5522 5523 5523 5523 5523 5523 5523 5522 5521 5521 5520 5519 5518 5517 5517 5517 5516 5516 5516 5516 5516 5516 5516 5516 5518 5518 5517 5519 5518 5519 5519 5519 5519 5519 5518
5510 5510 5510 5510 5510 5510 5509 5509 5509 5509 5510 5510 5510 5509 5508 5508 5506 5506 5505 5504 5503 5503 5502 5501 5501 5501 5500 5499 5500 5500 5500 5500 5501 5500 5499 5501 5502 5502 5502 5502 5501 5501 5500
5498 5498 5498 5498 5497 5497 5497 5496 5496 5496 5496 5496 5495 5495 5494 5493 5492 5490 5490 5489 5489 5488 5487 5486 5486 5485 5485 5484 5483 5484 5484 5484 5485 5485 5483 5484 5485 5486 5486 5485 5484 5483 5482
5486 5486 5485 5485 5485 5484 5484 5483 5483 5483 5482 5482 5481 5480 5479 5478 5477 5476 5475 5474 5474 5474 5473 5472 5471 5470 5470 5469 5469 5468 5468 5468 5468 5469 5468 5467 5467 5467 5470 5470 5468 5466 5465